Weather History for Belize / Phillip Goldston Intl. Airport, Belize

Change the Weather History Date:

Friday, December 6, 2013

  Actual Average Record
Temperature  
Mean Temperature 82 °F -  
Max Temperature 87 °F - - ()
Min Temperature 78 °F 69 °F - ()
Cooling Degree Days 18    
Growing Degree Days 32 (Base 50)    
Moisture  
Dew Point 76 °F    
Average Humidity 78    
Maximum Humidity 89    
Minimum Humidity 63    
Precipitation  
Precipitation 0.00 in 0.22 in - ()
Sea Level Pressure  
Sea Level Pressure 29.94 in    
Wind  
Wind Speed 6 mph ()    
Max Wind Speed 12 mph    
Max Gust Speed -    
Visibility 8.2 miles    
Events      
T = Trace of Precipitation, MM = Missing Value Source: Averaged Metar Reports

Daily Weather History Graph

Daily Weather History Graph

Search for Another Location

Airport:

Trip Planner

Search our weather history database for the weather conditions in past years. The results will help you decide how hot, cold, wet, or windy it might be!

Date:

Astronomy

Dec. 06, 2013 Rise Set
Actual Time 6:10 AM CST 5:18 PM CST
Civil Twilight 5:47 AM CST 5:41 PM CST
Nautical Twilight 5:20 AM CST 6:08 PM CST
Astronomical Twilight 4:53 AM CST 6:35 PM CST
Moon 9:35 AM CST (12/6) 9:26 PM CST (12/6)
Length of Visible Light 11h 54m
Length of Day
11h 07m
Waxing Crescent, 19% of the Moon is Illuminated
Dec 6
Waxing Crescent
Dec 9
First Quarter
Dec 17
Full
Dec 25
Last Quarter
Jan 1
New

Hourly Weather History & Observations

Time (CST) Temp. Heat Index Dew Point Humidity Pressure Visibility Wind Dir Wind Speed Gust Speed Precip Events Conditions
3:00 AM 78 °F - 74 °F 86% 29.90 in 12 mi ESE 3.5 mph - -   Partly Cloudy
5:00 AM 78.8 °F - 75.2 °F 89% 29.92 in 6.2 mi East 3.5 mph - N/A   Mostly Cloudy
6:00 AM 79 °F - 76 °F 86% 29.93 in 12 mi ESE 3.5 mph - -   Mostly Cloudy
6:00 AM 78.8 °F - 75.2 °F 89% 29.92 in 6.2 mi ESE 3.5 mph - N/A   Mostly Cloudy
7:00 AM 80.6 °F 86.2 °F 75.2 °F 84% 29.92 in 6.2 mi ESE 3.5 mph - N/A   Scattered Clouds
8:00 AM 82.4 °F 90.9 °F 77.0 °F 84% 29.95 in 6.2 mi ESE 5.8 mph - N/A   Scattered Clouds
9:00 AM 85 °F - 77 °F 71% 29.98 in 12 mi ESE 6.9 mph - -   Partly Cloudy
9:00 AM 86.0 °F 96.9 °F 77.0 °F 74% 29.98 in 6.2 mi ESE 6.9 mph - N/A   Scattered Clouds
10:00 AM 84.2 °F 92.3 °F 75.2 °F 74% 29.98 in 6.2 mi East 11.5 mph - N/A   Scattered Clouds
11:00 AM 84.2 °F 92.3 °F 75.2 °F 74% 29.98 in 6.2 mi ESE 8.1 mph - N/A   Scattered Clouds
12:00 PM 85 °F - 76 °F 67% 29.96 in 14 mi ESE 8.1 mph - -   Partly Cloudy
12:00 PM 86.0 °F 95.1 °F 75.2 °F 70% 29.95 in 6.2 mi ESE 8.1 mph - N/A   Scattered Clouds
1:00 PM 86.0 °F 95.1 °F 75.2 °F 70% 29.93 in 6.2 mi East 9.2 mph - N/A   Scattered Clouds
2:00 PM 87.8 °F 99.7 °F 77.0 °F 70% 29.91 in 6.2 mi East 10.4 mph - N/A   Scattered Clouds
3:00 PM 86 °F - 75 °F 63% 29.92 in 14 mi East 9.2 mph - -   Partly Cloudy
3:00 PM 86.0 °F 95.1 °F 75.2 °F 70% 29.91 in 6.2 mi East 9.2 mph - N/A   Partly Cloudy
4:00 PM 84.2 °F 94.1 °F 77.0 °F 79% 29.92 in 6.2 mi East 9.2 mph - N/A   Partly Cloudy
5:00 PM 82.4 °F 90.9 °F 77.0 °F 84% 29.92 in 6.2 mi East 6.9 mph - N/A   Partly Cloudy
6:00 PM 81 °F - 76 °F 82% 29.95 in 12 mi East 6.9 mph - -   Scattered Clouds
6:00 PM 80.6 °F 87.1 °F 77.0 °F 89% 29.94 in 6.2 mi East 6.9 mph - N/A   Partly Cloudy
9:00 PM 81 °F - 76 °F 82% 30.01 in 12 mi East 8.1 mph - -   Scattered Clouds
9:00 PM - - - N/A% - 6.2 mi East 11.5 mph - N/A   Scattered Clouds